This demonstration page uses our WeatherBlox Daily Observations layout. Learn more.

Left ArrowRight Arrow

Hourly Observations for May 17, 2018

Temp ( °F °C ) Dew Point ( °F °C ) Humidity (%) Winds ( mph kmh ) Pressure ( in mb ) Visibility ( mi km ) Precip ( " mm )
12:53 am 00:53 Clear 59 15 47 8.3 64 64 SW 13 20 29.73 1007 10 16 N/A
1:53 am 01:53 Clear 55 12.8 47 8.3 74 74 WSW 5 7 29.73 1007 10 16 N/A
2:53 am 02:53 Clear 52 11.1 47 8.3 83 83 WSW 7 11 29.75 1007 10 16 N/A
3:53 am 03:53 Clear 51 10.6 47 8.3 86 86 W 6 9 29.76 1008 10 16 N/A
4:53 am 04:53 Clear 54 12.2 48 8.9 80 80 WSW 5 7 29.76 1008 10 16 N/A
5:53 am 05:53 Cloudy 56 13.3 47 8.3 72 72 SW 15 24 29.76 1008 10 16 N/A
6:53 am 06:53 Mostly Cloudy 56 13.3 48 8.9 75 75 WSW 10 17 29.77 1008 10 16 N/A
7:53 am 07:53 Mostly Sunny 57 13.9 48 8.9 72 72 WSW 14 22 29.78 1008 10 16 N/A
8:53 am 08:53 Partly Cloudy 60 15.6 50 10 70 70 WSW 12 19 29.80 1009 10 16 N/A
9:53 am 09:53 Mostly Sunny 62 16.7 50 10 65 65 W 7 11 29.82 1010 10 16 N/A
10:53 am 10:53 Cloudy 61 16.1 50 10 67 67 WNW 13 20 29.83 1010 10 16 N/A
11:53 am 11:53 Cloudy 61 16.1 48 8.9 63 63 WNW 14 22 29.86 1011 10 16 N/A
12:53 pm 12:53 Mostly Cloudy 65 18.3 50 10 59 59 NW 17 28 29.84 1010 10 16 N/A
1:53 pm 13:53 Cloudy with Light Rain 60 15.6 52 11.1 75 75 W 7 11 29.87 1012 10 16 N/A
2:34 pm 14:34 Mostly Cloudy 64 18 54 12 68 68 WNW 10 17 29.80 1009 10 16 N/A
2:53 pm 14:53 Mostly Cloudy 67 19.4 51 10.6 57 57 NE 9 15 29.87 1012 10 16 N/A
3:53 pm 15:53 Cloudy 68 20 51 10.6 55 55 NNW 13 20 29.88 1012 10 16 N/A
4:53 pm 16:53 Cloudy 66 18.9 51 10.6 59 59 NNW 12 19 29.88 1012 10 16 N/A
5:53 pm 17:53 Mostly Cloudy 67 19.4 50 10 55 55 N 14 22 29.88 1012 10 16 N/A
6:53 pm 18:53 Cloudy 64 17.8 50 10 60 60 N 13 20 29.90 1012 10 16 N/A
7:53 pm 19:53 Cloudy 61 16.1 51 10.6 70 70 N 14 22 29.91 1013 10 16 N/A
8:53 pm 20:53 Cloudy 61 16.1 50 10 67 67 NNE 12 19 29.94 1014 10 16 N/A
9:53 pm 21:53 Cloudy 57 13.9 46 7.8 67 67 NE 16 26 29.98 1015 10 16 N/A
10:53 pm 22:53 Cloudy 53 11.7 43 6.1 69 69 NE 21 33 30.01 1016 10 16 N/A
11:53 pm 23:53 Cloudy 50 10 45 7.2 83 83 NE 18 30 30.04 1017 10 16 N/A

Powered by AerisWeather